This demonstration page uses our WeatherBlox Daily Observations layout. Learn more.

Left ArrowRight Arrow

53.62937, 11.41316

Hourly Observations for July 8, 2016

Temp ( °F °C ) Dew Point ( °F °C ) Humidity (%) Winds ( mph kmh ) Pressure ( in mb ) Visibility ( mi km ) Precip ( " mm )
6:20 am 06:20 Mostly Sunny 59 15 52 11 77 77 SSW 6 9 30.00 1016 7 11 N/A
6:50 am 06:50 Mostly Sunny 61 16 52 11 72 72 SSW 7 11 29.97 1015 7 11 N/A
7:20 am 07:20 Mostly Sunny 63 17 54 12 73 73 SSW 6 9 29.97 1015 7 11 N/A
7:50 am 07:50 Mostly Sunny 63 17 52 11 68 68 SSW 5 7 29.97 1015 7 11 N/A
8:20 am 08:20 Mostly Sunny 64 18 54 12 68 68 SW 8 13 29.97 1015 7 11 N/A
8:50 am 08:50 Mostly Sunny 64 18 54 12 68 68 SW 8 13 29.97 1015 7 11 N/A
9:20 am 09:20 Mostly Sunny 68 20 55 13 64 64 SW 9 15 29.97 1015 7 11 N/A
9:50 am 09:50 Mostly Sunny 70 21 52 11 53 53 SW 9 15 29.94 1014 7 11 N/A
10:20 am 10:20 Mostly Sunny 70 21 54 12 57 57 SW 7 11 29.94 1014 7 11 N/A
10:50 am 10:50 Mostly Sunny 70 21 54 12 57 57 SW 10 17 29.94 1014 7 11 N/A
11:20 am 11:20 Mostly Sunny 72 22 54 12 53 53 SW 9 15 29.94 1014 7 11 N/A
11:50 am 11:50 Mostly Sunny 72 22 54 12 53 53 S 12 19 29.94 1014 7 11 N/A
12:20 pm 12:20 Mostly Sunny 72 22 55 13 57 57 SSW 10 17 29.94 1014 7 11 N/A
12:50 pm 12:50 Mostly Cloudy 72 22 55 13 57 57 SSW 13 20 29.91 1013 30 48 N/A
1:20 pm 13:20 Mostly Cloudy 70 21 55 13 60 60 SSW 12 19 29.91 1013 30 48 N/A
1:50 pm 13:50 Mostly Cloudy with Light Rain 64 18 59 15 83 83 SSW 10 17 29.91 1013 30 48 N/A
2:20 pm 14:20 Mostly Cloudy 66 19 61 16 83 83 SSW 3 6 29.91 1013 30 48 N/A
2:50 pm 14:50 Mostly Cloudy 70 21 61 16 73 73 VRB 2 4 29.91 1013 30 48 N/A
3:20 pm 15:20 Partly Cloudy with Light Rain 70 21 61 16 73 73 SE 3 6 29.88 1012 30 48 N/A
3:50 pm 15:50 Mostly Cloudy 70 21 59 15 69 69 SSE 6 9 29.85 1011 30 48 N/A
4:20 pm 16:20 Mostly Cloudy with Light Rain 68 20 57 14 69 69 SSW 7 11 29.85 1011 30 48 N/A
4:50 pm 16:50 Mostly Cloudy with Light Rain 66 19 57 14 73 73 WSW 7 11 29.85 1011 6 9 N/A
5:20 pm 17:20 Mostly Cloudy with Light Rain 64 18 59 15 83 83 S 6 9 29.85 1011 30 48 N/A
5:50 pm 17:50 Cloudy with Rain 63 17 61 16 94 94 S 10 17 29.85 1011 30 48 N/A
6:20 pm 18:20 Mostly Cloudy with Light Rain 63 17 61 16 94 94 W 9 15 29.85 1011 30 48 N/A
6:50 pm 18:50 Partly Cloudy 64 18 61 16 88 88 WSW 13 20 29.85 1011 30 48 N/A
7:20 pm 19:20 Mostly Sunny 64 18 59 15 83 83 WSW 15 24 29.85 1011 7 11 N/A
7:50 pm 19:50 Mostly Cloudy 64 18 59 15 83 83 WSW 15 24 29.85 1011 30 48 N/A
8:20 pm 20:20 Mostly Cloudy 64 18 59 15 83 83 WSW 14 22 29.85 1011 30 48 N/A

Powered by AerisWeather